RYR124 EDJA-LICJ

Flight info

Callsign RYR124
Flight time 1h 43m
Altitude 37000
Route KPT4B KPT Z999 BEMKI L607 XEBIX Y740 NATAG DCT LORLO DCT BENUS DCT AMTEL DCT KONUT DCT GIANO GIANO3N
Aircraft B738/M-SDE2E3FGHIRWXY/LB1

Departure

Time 2026-05-09 09:49
Airport Memmingen Allgau Airport (EDJA)

Arrival

Time 2026-05-09 11:32
Airport Falcone–Borsellino Airport (LICJ)
Time Latitude Longitude Altitude Speed Heading
2026-05-09 09:20 47.98887 10.23325 2079 ft 0 kts 49°
2026-05-09 09:44 47.98888 10.23331 2079 ft 1 kts 71°
2026-05-09 09:44 47.98883 10.23337 2079 ft 1 kts 150°
2026-05-09 09:44 47.98865 10.23350 2080 ft 6 kts 147°
2026-05-09 09:44 47.98861 10.23411 2080 ft 6 kts 75°
2026-05-09 09:45 47.98876 10.23482 2079 ft 9 kts 71°
2026-05-09 09:45 47.98909 10.23627 2073 ft 15 kts 78°
2026-05-09 09:45 47.98902 10.23699 2073 ft 2 kts 121°
2026-05-09 09:45 47.98892 10.23714 2076 ft 4 kts 137°
2026-05-09 09:46 47.98829 10.23766 2074 ft 13 kts 176°
2026-05-09 09:46 47.98768 10.23665 2078 ft 15 kts 239°
2026-05-09 09:46 47.98691 10.23471 2079 ft 28 kts 239°
2026-05-09 09:46 47.98574 10.23185 2079 ft 33 kts 239°
2026-05-09 09:47 47.98472 10.22921 2082 ft 19 kts 244°
2026-05-09 09:47 47.98434 10.22787 2084 ft 6 kts 238°
2026-05-09 09:47 47.98424 10.22795 2083 ft 2 kts 97°
2026-05-09 09:47 47.98431 10.22816 2083 ft 3 kts 65°
2026-05-09 09:48 47.98442 10.22844 2083 ft 4 kts 60°
2026-05-09 09:48 47.98506 10.23007 2081 ft 52 kts 59°
2026-05-09 09:48 47.98831 10.23822 2076 ft 128 kts 59°
2026-05-09 09:48 47.99390 10.25231 2167 ft 180 kts 57°
2026-05-09 09:49 48.00057 10.26915 2913 ft 195 kts 59°
2026-05-09 09:49 48.00718 10.28604 4035 ft 184 kts 60°
2026-05-09 09:49 48.01367 10.30278 4820 ft 199 kts 61°
2026-05-09 09:49 48.02115 10.32167 5161 ft 222 kts 61°
2026-05-09 09:50 48.02940 10.34227 5639 ft 238 kts 60°
2026-05-09 09:50 48.03668 10.36469 6427 ft 242 kts 81°
2026-05-09 09:50 48.03511 10.38924 6894 ft 240 kts 117°
2026-05-09 09:50 48.02468 10.40834 7077 ft 239 kts 148°
2026-05-09 09:51 48.00957 10.41856 7225 ft 240 kts 163°
2026-05-09 09:51 47.99343 10.42582 7931 ft 244 kts 166°
2026-05-09 09:51 47.97641 10.42964 8633 ft 257 kts 176°
2026-05-09 09:51 47.95774 10.43177 9087 ft 278 kts 177°
2026-05-09 09:52 47.93812 10.43379 9934 ft 284 kts 177°
2026-05-09 09:52 47.91815 10.43583 10617 ft 296 kts 178°
2026-05-09 09:52 47.89664 10.43803 10881 ft 322 kts 177°
2026-05-09 09:52 47.87382 10.44042 11478 ft 334 kts 177°
2026-05-09 09:53 47.85040 10.44293 12264 ft 340 kts 177°
2026-05-09 09:53 47.82690 10.44548 13101 ft 345 kts 177°
2026-05-09 09:53 47.80278 10.44812 13926 ft 349 kts 178°
2026-05-09 09:53 47.77845 10.45078 14688 ft 353 kts 178°
2026-05-09 09:54 47.75373 10.45350 15466 ft 356 kts 178°
2026-05-09 09:54 47.72886 10.45622 16243 ft 359 kts 178°
2026-05-09 09:54 47.70383 10.45896 17000 ft 363 kts 178°
2026-05-09 09:54 47.67854 10.46173 17755 ft 367 kts 178°
2026-05-09 09:55 47.65289 10.46453 18484 ft 371 kts 179°
2026-05-09 09:55 47.62703 10.46736 19118 ft 375 kts 179°
2026-05-09 09:55 47.60084 10.47021 19736 ft 379 kts 179°
2026-05-09 09:55 47.57433 10.47310 20352 ft 383 kts 179°
2026-05-09 09:56 47.54786 10.47598 20972 ft 387 kts 179°
2026-05-09 09:56 47.52076 10.47893 21567 ft 393 kts 179°
2026-05-09 09:56 47.49333 10.48191 22144 ft 397 kts 179°
2026-05-09 09:56 47.46562 10.48492 22763 ft 400 kts 179°
2026-05-09 09:57 47.43785 10.48794 23410 ft 402 kts 179°
2026-05-09 09:57 47.40982 10.49098 23896 ft 406 kts 179°
2026-05-09 09:57 47.38140 10.49405 24357 ft 411 kts 179°
2026-05-09 09:57 47.35283 10.49714 24905 ft 412 kts 179°
2026-05-09 09:58 47.32427 10.50025 25421 ft 413 kts 180°
2026-05-09 09:58 47.29551 10.50336 25861 ft 416 kts 179°
2026-05-09 09:58 47.26686 10.50644 26293 ft 419 kts 179°
2026-05-09 09:58 47.23772 10.50959 26743 ft 422 kts 180°
2026-05-09 09:59 47.20830 10.51276 27125 ft 424 kts 180°
2026-05-09 09:59 47.17879 10.51594 27103 ft 425 kts 180°
2026-05-09 09:59 47.14937 10.51910 27134 ft 423 kts 180°
2026-05-09 09:59 47.11987 10.52227 27177 ft 427 kts 180°
2026-05-09 10:00 47.09006 10.52544 27555 ft 430 kts 179°
2026-05-09 10:00 47.06022 10.52931 28170 ft 430 kts 175°
2026-05-09 10:00 47.03084 10.53898 28665 ft 435 kts 167°
2026-05-09 10:00 47.00185 10.55240 29082 ft 438 kts 166°
2026-05-09 10:01 46.97281 10.56634 29406 ft 442 kts 166°
2026-05-09 10:01 46.94340 10.58024 29810 ft 445 kts 166°
2026-05-09 10:01 46.91382 10.59385 30209 ft 447 kts 167°
2026-05-09 10:01 46.88408 10.60729 30543 ft 449 kts 167°
2026-05-09 10:02 46.85404 10.62079 30841 ft 452 kts 167°
2026-05-09 10:02 46.82392 10.63428 31127 ft 454 kts 167°
2026-05-09 10:02 46.79400 10.64767 31436 ft 456 kts 167°
2026-05-09 10:02 46.76368 10.66124 31823 ft 456 kts 167°
2026-05-09 10:03 46.73332 10.67482 32241 ft 455 kts 167°
2026-05-09 10:03 46.70282 10.68695 32612 ft 453 kts 171°
2026-05-09 10:03 46.67205 10.69672 32909 ft 452 kts 173°
2026-05-09 10:03 46.64118 10.70559 33125 ft 452 kts 174°
2026-05-09 10:04 46.61015 10.71412 33384 ft 454 kts 174°
2026-05-09 10:04 46.57907 10.72278 33781 ft 453 kts 174°
2026-05-09 10:04 46.54815 10.73158 34112 ft 452 kts 174°
2026-05-09 10:04 46.51734 10.74051 34409 ft 451 kts 174°
2026-05-09 10:05 46.48660 10.74952 34704 ft 452 kts 174°
2026-05-09 10:05 46.45559 10.75868 34952 ft 453 kts 175°
2026-05-09 10:05 46.42502 10.76770 35061 ft 457 kts 175°
2026-05-09 10:05 46.39381 10.77691 35249 ft 458 kts 175°
2026-05-09 10:06 46.36264 10.78615 35651 ft 455 kts 175°
2026-05-09 10:06 46.33172 10.79527 36017 ft 453 kts 175°
2026-05-09 10:06 46.30080 10.80437 36260 ft 453 kts 175°
2026-05-09 10:06 46.26988 10.81343 36487 ft 455 kts 175°
2026-05-09 10:07 46.23880 10.82250 36685 ft 456 kts 174°
2026-05-09 10:07 46.20770 10.83164 37015 ft 455 kts 174°
2026-05-09 10:07 46.17666 10.84077 37210 ft 456 kts 174°
2026-05-09 10:08 46.11434 10.85903 37183 ft 455 kts 174°
2026-05-09 10:08 46.05242 10.87700 37193 ft 452 kts 174°
2026-05-09 10:09 45.99116 10.89489 37173 ft 452 kts 175°
2026-05-09 10:09 45.92941 10.91285 37159 ft 453 kts 175°
2026-05-09 10:10 45.86762 10.93077 37149 ft 454 kts 175°
2026-05-09 10:10 45.81609 10.94567 37136 ft 453 kts 176°
2026-05-09 10:11 45.75430 10.96351 37135 ft 452 kts 176°
2026-05-09 10:11 45.69237 10.98129 37103 ft 456 kts 176°
2026-05-09 10:12 45.63002 10.99920 37079 ft 457 kts 176°
2026-05-09 10:12 45.56756 11.01591 37094 ft 457 kts 176°
2026-05-09 10:13 45.50540 11.03423 37106 ft 459 kts 176°
2026-05-09 10:13 45.44278 11.05263 37097 ft 460 kts 176°
2026-05-09 10:14 45.37987 11.07070 37098 ft 460 kts 177°
2026-05-09 10:14 45.31707 11.08854 37102 ft 459 kts 177°
2026-05-09 10:15 45.25443 11.10627 37105 ft 459 kts 177°
2026-05-09 10:15 45.19181 11.12397 37098 ft 458 kts 178°
2026-05-09 10:16 45.12976 11.14148 37100 ft 457 kts 178°
2026-05-09 10:16 45.06751 11.15900 37110 ft 456 kts 178°
2026-05-09 10:17 45.00535 11.17645 37101 ft 455 kts 178°
2026-05-09 10:17 44.94333 11.19384 37141 ft 454 kts 178°
2026-05-09 10:18 44.88130 11.21086 37156 ft 453 kts 179°
2026-05-09 10:18 44.81923 11.22617 37132 ft 452 kts 180°
2026-05-09 10:19 44.75714 11.24110 37161 ft 452 kts 180°
2026-05-09 10:19 44.69503 11.25617 37128 ft 453 kts 179°
2026-05-09 10:20 44.63308 11.27130 37081 ft 455 kts 179°
2026-05-09 10:20 44.57069 11.28657 37099 ft 455 kts 179°
2026-05-09 10:21 44.50816 11.30183 37105 ft 457 kts 179°
2026-05-09 10:21 44.44541 11.31707 37107 ft 458 kts 179°
2026-05-09 10:22 44.38244 11.33237 37113 ft 459 kts 179°
2026-05-09 10:22 44.31969 11.34759 37132 ft 461 kts 179°
2026-05-09 10:23 44.25638 11.36294 37175 ft 462 kts 179°
2026-05-09 10:23 44.19301 11.37823 37170 ft 462 kts 179°
2026-05-09 10:24 44.12935 11.39493 37408 ft 468 kts 176°
2026-05-09 10:24 44.09755 11.40340 37693 ft 464 kts 179°
2026-05-09 10:24 44.06563 11.41058 37957 ft 463 kts 180°
2026-05-09 10:24 44.03420 11.41746 38141 ft 463 kts 180°
2026-05-09 10:25 44.00227 11.42455 38317 ft 465 kts 180°
2026-05-09 10:25 43.97032 11.43186 38574 ft 465 kts 179°
2026-05-09 10:25 43.93839 11.43934 38835 ft 464 kts 179°
2026-05-09 10:25 43.90659 11.44689 39029 ft 464 kts 179°
2026-05-09 10:26 43.87475 11.45449 39081 ft 466 kts 179°
2026-05-09 10:26 43.81063 11.46973 39071 ft 466 kts 179°
2026-05-09 10:27 43.74675 11.48500 39095 ft 465 kts 179°
2026-05-09 10:27 43.68302 11.50014 39091 ft 466 kts 179°
2026-05-09 10:28 43.61941 11.51519 39077 ft 466 kts 179°
2026-05-09 10:28 43.55536 11.53032 39091 ft 465 kts 179°
2026-05-09 10:29 43.49160 11.54535 39091 ft 465 kts 179°
2026-05-09 10:29 43.42771 11.56037 39077 ft 465 kts 179°
2026-05-09 10:30 43.36410 11.57531 39090 ft 464 kts 179°
2026-05-09 10:30 43.30043 11.59020 39086 ft 464 kts 179°
2026-05-09 10:31 43.23687 11.60506 39072 ft 463 kts 179°
2026-05-09 10:31 43.17369 11.61942 39088 ft 462 kts 180°
2026-05-09 10:32 43.11024 11.63313 39098 ft 461 kts 180°
2026-05-09 10:32 43.04705 11.64672 39094 ft 460 kts 180°
2026-05-09 10:33 42.98393 11.66036 39089 ft 459 kts 180°
2026-05-09 10:33 42.92095 11.67399 39090 ft 457 kts 180°
2026-05-09 10:34 42.85809 11.68759 39087 ft 457 kts 180°
2026-05-09 10:34 42.76386 11.70787 39095 ft 457 kts 180°
2026-05-09 10:35 42.70083 11.72140 39088 ft 459 kts 180°
2026-05-09 10:35 42.63756 11.73497 39101 ft 460 kts 180°
2026-05-09 10:36 42.57468 11.74843 39088 ft 460 kts 180°
2026-05-09 10:36 42.51139 11.76196 39099 ft 460 kts 180°
2026-05-09 10:37 42.44805 11.77546 39101 ft 461 kts 180°
2026-05-09 10:37 42.38481 11.78894 39078 ft 455 kts 180°
2026-05-09 10:38 42.32292 11.80218 39091 ft 447 kts 180°
2026-05-09 10:38 42.26141 11.81516 39090 ft 447 kts 180°
2026-05-09 10:39 42.19988 11.82812 39094 ft 448 kts 180°
2026-05-09 10:39 42.13864 11.84102 39144 ft 448 kts 180°
2026-05-09 10:40 42.07690 11.85402 39148 ft 449 kts 180°
2026-05-09 10:40 42.01496 11.86705 39170 ft 450 kts 180°
2026-05-09 10:41 41.95313 11.88003 39183 ft 450 kts 180°
2026-05-09 10:41 41.89124 11.89299 39184 ft 450 kts 180°
2026-05-09 10:42 41.82971 11.90585 39178 ft 450 kts 180°
2026-05-09 10:42 41.76788 11.91875 39146 ft 450 kts 180°
2026-05-09 10:43 41.70595 11.93165 39136 ft 449 kts 180°
2026-05-09 10:43 41.64425 11.94447 39117 ft 449 kts 180°
2026-05-09 10:44 41.58257 11.95727 39099 ft 447 kts 180°
2026-05-09 10:44 41.52121 11.96998 39096 ft 445 kts 180°
2026-05-09 10:46 41.36904 12.00136 39106 ft 443 kts 180°
2026-05-09 10:46 41.30811 12.01389 39099 ft 442 kts 180°
2026-05-09 10:47 41.24718 12.02585 39104 ft 442 kts 180°
2026-05-09 10:47 41.18630 12.03689 39108 ft 442 kts 181°
2026-05-09 10:48 41.12531 12.04788 39083 ft 443 kts 180°
2026-05-09 10:48 41.06407 12.05903 39101 ft 444 kts 180°
2026-05-09 10:49 41.00277 12.07022 39107 ft 445 kts 180°
2026-05-09 10:49 40.94159 12.08139 39109 ft 447 kts 180°
2026-05-09 10:50 40.87989 12.09264 39098 ft 448 kts 180°
2026-05-09 10:50 40.81810 12.10389 39104 ft 448 kts 180°
2026-05-09 10:51 40.75624 12.11512 39106 ft 448 kts 180°
2026-05-09 10:51 40.69440 12.12633 39081 ft 448 kts 180°
2026-05-09 10:52 40.63306 12.13744 39096 ft 447 kts 180°
2026-05-09 10:52 40.57142 12.14857 39102 ft 446 kts 180°
2026-05-09 10:53 40.50992 12.15965 39103 ft 446 kts 180°
2026-05-09 10:53 40.44852 12.17069 39100 ft 444 kts 180°
2026-05-09 10:53 40.41778 12.17620 38816 ft 449 kts 180°
2026-05-09 10:54 40.38674 12.18173 38286 ft 449 kts 180°
2026-05-09 10:54 40.36627 12.18541 37910 ft 447 kts 180°
2026-05-09 10:54 40.33557 12.19094 37360 ft 445 kts 180°
2026-05-09 10:54 40.30491 12.19645 36782 ft 444 kts 180°
2026-05-09 10:55 40.27432 12.20193 36224 ft 443 kts 180°
2026-05-09 10:55 40.24379 12.20739 35745 ft 439 kts 180°
2026-05-09 10:55 40.21369 12.21279 35327 ft 435 kts 180°
2026-05-09 10:55 40.18381 12.21814 34902 ft 432 kts 180°
2026-05-09 10:56 40.15412 12.22344 34491 ft 428 kts 181°
2026-05-09 10:56 40.12468 12.22869 34074 ft 425 kts 181°
2026-05-09 10:56 40.09547 12.23388 33605 ft 422 kts 181°
2026-05-09 10:56 40.06642 12.23904 33162 ft 419 kts 180°
2026-05-09 10:57 40.03804 12.24408 32745 ft 415 kts 180°
2026-05-09 10:57 40.00953 12.24914 32333 ft 412 kts 180°
2026-05-09 10:57 39.98126 12.25414 31927 ft 409 kts 180°
2026-05-09 10:57 39.95313 12.25912 31536 ft 406 kts 180°
2026-05-09 10:58 39.92520 12.26406 31132 ft 403 kts 180°
2026-05-09 10:58 39.89750 12.26895 30745 ft 401 kts 180°
2026-05-09 10:58 39.86991 12.27382 30354 ft 399 kts 180°
2026-05-09 10:58 39.84249 12.27865 29928 ft 397 kts 180°
2026-05-09 10:59 39.81521 12.28346 29460 ft 394 kts 180°
2026-05-09 10:59 39.78820 12.28823 29073 ft 389 kts 180°
2026-05-09 10:59 39.76139 12.29296 28649 ft 387 kts 180°
2026-05-09 10:59 39.73483 12.29764 28249 ft 383 kts 180°
2026-05-09 11:00 39.70845 12.30228 27842 ft 381 kts 180°
2026-05-09 11:00 39.68266 12.30681 27454 ft 378 kts 180°
2026-05-09 11:00 39.65666 12.31137 27058 ft 376 kts 180°
2026-05-09 11:00 39.63082 12.31589 26670 ft 373 kts 180°
2026-05-09 11:01 39.60517 12.32039 26288 ft 371 kts 180°
2026-05-09 11:01 39.57959 12.32486 25891 ft 369 kts 179°
2026-05-09 11:01 39.55415 12.32931 25509 ft 368 kts 179°
2026-05-09 11:01 39.52884 12.33373 25138 ft 366 kts 179°
2026-05-09 11:02 39.50362 12.33814 24749 ft 365 kts 179°
2026-05-09 11:02 39.47842 12.34253 24352 ft 364 kts 179°
2026-05-09 11:02 39.45330 12.34691 23960 ft 364 kts 179°
2026-05-09 11:02 39.42818 12.35128 23543 ft 363 kts 179°
2026-05-09 11:03 39.40317 12.35564 23117 ft 362 kts 179°
2026-05-09 11:03 39.37831 12.35997 22712 ft 360 kts 179°
2026-05-09 11:03 39.35383 12.36424 22325 ft 357 kts 178°
2026-05-09 11:03 39.32929 12.36852 21952 ft 354 kts 178°
2026-05-09 11:04 39.30495 12.37275 21574 ft 352 kts 178°
2026-05-09 11:04 39.28077 12.37695 21201 ft 349 kts 178°
2026-05-09 11:04 39.25673 12.38112 20826 ft 347 kts 178°
2026-05-09 11:04 39.23282 12.38527 20461 ft 345 kts 178°
2026-05-09 11:05 39.20909 12.38938 20101 ft 343 kts 178°
2026-05-09 11:05 39.18542 12.39347 19739 ft 341 kts 178°
2026-05-09 11:05 39.16195 12.39753 19376 ft 340 kts 178°
2026-05-09 11:05 39.13853 12.40158 19008 ft 338 kts 177°
2026-05-09 11:06 39.11523 12.40560 18656 ft 337 kts 177°
2026-05-09 11:06 39.09204 12.40960 18268 ft 336 kts 177°
2026-05-09 11:06 39.06891 12.41359 17864 ft 335 kts 177°
2026-05-09 11:06 39.04612 12.41753 17487 ft 333 kts 177°
2026-05-09 11:07 39.02320 12.42148 17117 ft 331 kts 177°
2026-05-09 11:07 39.00037 12.42542 16751 ft 330 kts 177°
2026-05-09 11:07 38.97767 12.42933 16394 ft 328 kts 177°
2026-05-09 11:07 38.95508 12.43321 16039 ft 326 kts 177°
2026-05-09 11:08 38.93262 12.43708 15689 ft 325 kts 177°
2026-05-09 11:08 38.91029 12.44091 15328 ft 323 kts 177°
2026-05-09 11:08 38.88796 12.44475 14981 ft 322 kts 177°
2026-05-09 11:08 38.86588 12.44987 14629 ft 325 kts 167°
2026-05-09 11:09 38.84498 12.46099 14356 ft 325 kts 159°
2026-05-09 11:09 38.82459 12.47342 14016 ft 324 kts 158°
2026-05-09 11:09 38.80428 12.48600 13640 ft 324 kts 158°
2026-05-09 11:09 38.78400 12.49851 13260 ft 323 kts 158°
2026-05-09 11:10 38.76377 12.51088 12911 ft 322 kts 158°
2026-05-09 11:10 38.74359 12.52314 12548 ft 321 kts 158°
2026-05-09 11:10 38.72370 12.53515 12198 ft 320 kts 158°
2026-05-09 11:10 38.70357 12.54726 11844 ft 319 kts 159°
2026-05-09 11:11 38.68352 12.55930 11498 ft 318 kts 158°
2026-05-09 11:11 38.66351 12.57129 11118 ft 318 kts 159°
2026-05-09 11:11 38.64350 12.58326 10784 ft 317 kts 159°
2026-05-09 11:11 38.62356 12.59519 10465 ft 315 kts 159°
2026-05-09 11:12 38.60393 12.60694 10305 ft 308 kts 159°
2026-05-09 11:12 38.58476 12.61840 10159 ft 300 kts 159°
2026-05-09 11:12 38.56596 12.62963 9946 ft 296 kts 159°
2026-05-09 11:12 38.54727 12.64077 9639 ft 295 kts 159°
2026-05-09 11:13 38.52869 12.65183 9345 ft 294 kts 159°
2026-05-09 11:13 38.51025 12.66282 9051 ft 292 kts 159°
2026-05-09 11:13 38.49208 12.67364 8767 ft 291 kts 159°
2026-05-09 11:13 38.47381 12.68451 8483 ft 289 kts 159°
2026-05-09 11:14 38.45563 12.69532 8254 ft 285 kts 159°
2026-05-09 11:14 38.43791 12.70587 8134 ft 278 kts 159°
2026-05-09 11:14 38.42050 12.71614 7893 ft 274 kts 160°
2026-05-09 11:14 38.40310 12.72614 7633 ft 273 kts 160°
2026-05-09 11:15 38.38591 12.73595 7367 ft 268 kts 160°
2026-05-09 11:15 38.36911 12.74553 7108 ft 260 kts 160°
2026-05-09 11:15 38.35262 12.75495 6863 ft 259 kts 160°
2026-05-09 11:15 38.33642 12.76418 6612 ft 258 kts 160°
2026-05-09 11:16 38.31984 12.77363 6351 ft 258 kts 160°
2026-05-09 11:16 38.30372 12.78282 6085 ft 257 kts 159°
2026-05-09 11:16 38.28741 12.79213 5825 ft 256 kts 159°
2026-05-09 11:16 38.27095 12.80158 5479 ft 261 kts 159°
2026-05-09 11:17 38.25436 12.81090 5203 ft 260 kts 159°
2026-05-09 11:17 38.23767 12.82037 4805 ft 265 kts 158°
2026-05-09 11:17 38.22087 12.83017 4565 ft 263 kts 157°
2026-05-09 11:17 38.20444 12.83987 4344 ft 260 kts 156°
2026-05-09 11:18 38.18808 12.84959 4089 ft 258 kts 157°
2026-05-09 11:18 38.17176 12.85896 3822 ft 256 kts 158°
2026-05-09 11:18 38.15546 12.86813 3566 ft 255 kts 157°
2026-05-09 11:18 38.13956 12.87698 3414 ft 243 kts 157°
2026-05-09 11:19 38.12536 12.88728 3308 ft 228 kts 139°
2026-05-09 11:19 38.11687 12.90325 3151 ft 215 kts 107°
2026-05-09 11:19 38.11636 12.92154 2903 ft 209 kts 75°
2026-05-09 11:19 38.12264 12.93807 2576 ft 207 kts 63°
2026-05-09 11:20 38.12910 12.95431 2223 ft 203 kts 65°
2026-05-09 11:20 38.13488 12.97014 1935 ft 191 kts 66°
2026-05-09 11:20 38.13992 12.98480 1762 ft 173 kts 66°
2026-05-09 11:20 38.14448 12.99811 1522 ft 158 kts 66°
2026-05-09 11:21 38.14883 13.01064 1185 ft 152 kts 64°
2026-05-09 11:21 38.15264 13.02280 840 ft 143 kts 65°
2026-05-09 11:21 38.15654 13.03420 735 ft 153 kts 64°
2026-05-09 11:21 38.16086 13.04698 1585 ft 168 kts 65°
2026-05-09 11:22 38.16567 13.06142 2138 ft 178 kts 69°
2026-05-09 11:22 38.17089 13.07692 2558 ft 207 kts 66°
2026-05-09 11:22 38.18045 13.09060 3028 ft 218 kts 34°
2026-05-09 11:22 38.19506 13.09465 2991 ft 217 kts 351°
2026-05-09 11:23 38.20753 13.08546 2986 ft 207 kts 309°
2026-05-09 11:23 38.21646 13.07128 2981 ft 205 kts 310°
2026-05-09 11:23 38.22446 13.05665 2971 ft 200 kts 289°
2026-05-09 11:23 38.22558 13.03947 3003 ft 197 kts 264°
2026-05-09 11:24 38.22447 13.02149 2993 ft 212 kts 265°
2026-05-09 11:24 38.22329 13.00278 3001 ft 216 kts 264°
2026-05-09 11:24 38.22206 12.98355 3001 ft 220 kts 264°
2026-05-09 11:24 38.22081 12.96416 3002 ft 220 kts 264°
2026-05-09 11:25 38.21952 12.94474 2998 ft 221 kts 264°
2026-05-09 11:25 38.21827 12.92538 2984 ft 218 kts 264°
2026-05-09 11:25 38.21689 12.90622 2925 ft 219 kts 258°
2026-05-09 11:25 38.20970 12.88938 2642 ft 220 kts 216°
2026-05-09 11:26 38.19581 12.88349 2430 ft 210 kts 172°
2026-05-09 11:26 38.18188 12.88634 2330 ft 198 kts 170°
2026-05-09 11:26 38.16845 12.88821 2288 ft 189 kts 174°
2026-05-09 11:26 38.15583 12.88954 2253 ft 175 kts 175°
2026-05-09 11:27 38.14400 12.89064 2133 ft 165 kts 174°
2026-05-09 11:27 38.13271 12.89176 2007 ft 164 kts 173°
2026-05-09 11:27 38.12206 12.89602 1984 ft 162 kts 147°
2026-05-09 11:27 38.11536 12.90659 2061 ft 154 kts 104°
2026-05-09 11:28 38.11650 12.91996 2009 ft 160 kts 66°
2026-05-09 11:28 38.12145 12.93272 1966 ft 160 kts 63°
2026-05-09 11:28 38.12640 12.94519 1912 ft 156 kts 64°
2026-05-09 11:28 38.13087 12.95759 1870 ft 150 kts 66°
2026-05-09 11:29 38.13497 12.96943 1834 ft 144 kts 66°
2026-05-09 11:29 38.13890 12.98110 1752 ft 142 kts 66°
2026-05-09 11:29 38.14268 12.99248 1637 ft 140 kts 66°
2026-05-09 11:29 38.14649 13.00402 1449 ft 142 kts 66°
2026-05-09 11:30 38.15033 13.01565 1279 ft 142 kts 64°
2026-05-09 11:30 38.15429 13.02707 1078 ft 139 kts 65°
2026-05-09 11:30 38.15797 13.03819 897 ft 135 kts 65°
2026-05-09 11:30 38.16161 13.04908 688 ft 134 kts 65°
2026-05-09 11:31 38.16521 13.05974 559 ft 133 kts 65°
2026-05-09 11:31 38.16887 13.07057 404 ft 134 kts 65°
2026-05-09 11:31 38.17256 13.08147 211 ft 134 kts 65°
2026-05-09 11:31 38.17625 13.09234 81 ft 132 kts 65°
2026-05-09 11:32 38.17940 13.10164 64 ft 73 kts 67°
2026-05-09 11:32 38.18050 13.10485 63 ft 23 kts 68°
2026-05-09 11:32 38.18108 13.10668 66 ft 15 kts 68°
2026-05-09 11:32 38.18126 13.10720 65 ft 6 kts 56°
2026-05-09 11:33 38.18162 13.10708 62 ft 6 kts 312°
2026-05-09 11:33 38.18176 13.10650 68 ft 8 kts 276°
2026-05-09 11:33 38.18192 13.10480 57 ft 11 kts 279°
2026-05-09 11:34 38.18214 13.10390 63 ft 11 kts 312°
2026-05-09 11:34 38.18279 13.10348 61 ft 10 kts 334°
2026-05-09 11:34 38.18338 13.10313 60 ft 9 kts 336°
2026-05-09 11:34 38.18380 13.10291 58 ft 3 kts 339°
2026-05-09 11:35 38.18400 13.10301 65 ft 3 kts 45°
2026-05-09 11:35 38.18412 13.10326 60 ft 3 kts 63°
2026-05-09 11:35 38.18421 13.10354 61 ft 3 kts 68°
2026-05-09 11:35 38.18430 13.10383 64 ft 4 kts 67°
2026-05-09 11:36 38.18432 13.10387 64 ft 0 kts 67°